Showing default

ICEYE-X61, 66754

Orbit data source: Space-Track

ICEYE-X61, 66754 is a payload satellite owned by ICEYE (FI) in SSO that was launched on Fri, 28 Nov 2025 UTC via an FALCON 9 launch vehicle from the Air Force Western Test Range (AFWTR). Payload-class satellites include a variety of spacecraft equipped with specific instruments for various scientific and technological missions. These include communications satellites like Starlink; space stations such as the ISS; scientific satellites like the Hubble; Earth observation satellites from companies like Planet Labs, Umbra, and HawkEye 360; GPS; miniature CubeSats for education and research; and military/defense satellites.

Loading next visibility...
Identifier
66754, 2025-276CS
Orbit
SSO
Country
Flag of FIFI / FIN
Related business
Manufacturer
ICEYE
Mission
Operational Commercial Radar Imaging
Bus & Motor
ICEYE, Unknown motor
Mass
120 kg wet, 120 kg dry
Launch date (UTC)
2025-11-28 (7 months ago)
Launch vehicle
FALCON 9
Launch site
Air Force Western Test Range (AFWTR)
Object type
Payload
Rocket body
Debris
Shape & HBR
Box + 1 Pan, 2.4 m
Radar Cross Section
0.776 m², Medium (>0.1 m² and < 1m²)

Expand to show TLE details & history
Last TLE update: 16 hours ago

TLE from 16 hours ago
0 ICEYE-X61
1 66754U 25276CS  26171.19177071  .00002502  00000-0  12480-3 0  9997
2 66754  97.4197 244.6261 0002579 359.0300   1.0929 15.18427772 30878
Epoch: 2026-06-20T04:36Z
TLE epoch observation values (Epoch: 2026-06-20T04:36:08.989Z)
Latitude
0.00001°
Longitude
-92.82128°
Altitude
511.903 km
Speed
7.609 km/s
True Right ascension
16h 18m 30s
True Declination
0° 00' 00"
Sunlit
Object was in full shadow at epoch
Visualization orbit readout
Latitude
Unknown
Longitude
Unknown
Altitude
Unknown
Speed
Unknown
Apparent Right ascension
Unknown
Apparent Declination
Unknown
Sunlit
N/A
Visualization observer readout
Local Sidereal Time
07:21:53
Azimuth
Unknown
Elevation
Unknown
Doppler factor
Unknown
Orbital elements
Apogee altitude
509.336 km
Perigee altitude
505.784 km
Semi-major axis
6,885.697 km
Eccentricity
0.00026
Inclination
97.4197°
RAAN
244.6261°
Arg. of periapsis
359.03°
True anomaly
1.09346°
Mean anomaly
1.0929°
Eccentric anomaly
1.09318°
Mean motion
3.79858 °/min
Orbital period
94.77 mins
BSTAR
0.0001248
Loading maneuver chart data...
Computing Atmospheric mass density...
Loading historical data...
Loading historical data...
Loading historical data...
Loading historical data...
Loading historical data...
Loading historical data...
Loading historical data...

Documentation

Showing up to 5 results
|